Regional Weather Roundup
Issued by NWS Little Rock, AR

Home | Current Version | Previous Version | Graphics & Text | Print | Product List | Glossary On
Versions: 1 2 3 4 5 6 7 8 9 10 11 12 13 14 15 16 17 18 19 20 21 22 23 24 25 26 27 28 29 30 31 32
000
ASUS44 KLZK 171605
RWRLZK

WEATHER ROUNDUP FOR ARKANSAS
NATIONAL WEATHER SERVICE LITTLE ROCK AR
1000 AM CST WED JAN 17 2018

NOTE: "FAIR" INDICATES FEW OR NO CLOUDS BELOW 12,000 FEET WITH NO
SIGNIFICANT WEATHER AND/OR OBSTRUCTIONS TO VISIBILITY.

ARZ001-003-010-029-171700-
NORTHWEST ARKANSAS

CITY           SKY/WX    TMP DP  RH WIND       PRES   REMARKS
FAYETTEVILLE   CLOUDY    11   6  81 CALM      30.72R
FORT SMITH     SUNNY     14   4  64 CALM      30.80R
HARRISON       CLOUDY    12   4  70 W3        30.69R
BENTONVILLE    CLOUDY    16   6  65 W3        30.73R
ROGERS         CLOUDY    17   8  67 W5        30.71R WCI  10
SILOAM SPGS    CLOUDY    12   5  73 CALM      30.73R
HIGHFILL       CLOUDY    13   6  74 VRB3      30.71R
SPRINGDALE     SUNNY     12   5  73 SW3       30.72R
$$

ARZ004-005-016-171700-
NORTH CENTRAL ARKANSAS

CITY           SKY/WX    TMP DP  RH WIND       PRES   REMARKS
BATESVILLE     FAIR      13   5  70 CALM      30.78S
FLIPPIN        CLOUDY    16   5  62 CALM      30.77R
MTN HOME       CLOUDY     8   7  95 CALM      30.72R FOG
$$

ARZ040-041-171700-
WEST CENTRAL ARKANSAS

CITY           SKY/WX    TMP DP  RH WIND       PRES   REMARKS
MENA           CLOUDY    19   9  63 CALM      30.72S
MOUNT IDA      SUNNY     16   5  62 NE3       30.73S
$$

ARZ009-017-025-026-028-171700-
NORTHEAST ARKANSAS

CITY           SKY/WX    TMP DP  RH WIND       PRES   REMARKS
JONESBORO      FAIR      14   7  73 NW6       30.79R WCI   5
NEWPORT        FAIR      14   5  67 VRB6      30.81R WCI   5
WALNUT RIDGE   FAIR      17   6  62 N6        30.79R WCI   9
BLYTHEVILLE    FLURRIES  14   8  77 NE8       30.78R WCI   3
$$

ARZ022-023-033-042-044-171700-
CENTRAL ARKANSAS

CITY           SKY/WX    TMP DP  RH WIND       PRES   REMARKS
LITTLE ROCK    FAIR      16   6  65 NE6       30.82R WCI   7
N LITTLE ROCK    N/A     15   7  72 CALM      30.86R
SEARCY         FAIR      18   9  68 MISG        N/A
HOT SPRINGS    FAIR      17   6  62 W5        30.78R WCI  10
RUSSELLVILLE   SUNNY     15   5  64 N5        30.79R WCI   8
CLINTON        FAIR      14   5  67 CALM      30.78R
$$

ARZ036-171700-
EAST ARKANSAS

CITY           SKY/WX    TMP DP  RH WIND       PRES   REMARKS
WEST MEMPHIS   FAIR      12   7  80 NE7       30.79R WCI   1
$$

ARZ050-053-066-070-073-171700-
SOUTHWEST ARKANSAS

CITY           SKY/WX    TMP DP  RH WIND       PRES   REMARKS
ARKADELPHIA    FAIR      18   7  62 NE8       30.83R WCI   8
CAMDEN         FAIR      18   3  53 NE3       30.83S
TEXARKANA      FAIR      15   5  64 E7        30.80R WCI   5
EL DORADO      FAIR      15   7  70 N7        30.82R WCI   5
DE QUEEN       SUNNY     17   8  67 CALM      30.79R
$$

ARZ056-057-069-171700-
SOUTHEAST ARKANSAS

CITY           SKY/WX    TMP DP  RH WIND       PRES   REMARKS
PINE BLUFF     FAIR      12   6  77 N9        30.82R WCI   0
STUTTGART      FAIR      12   5  73 N7        30.82R WCI   1
MONTICELLO     FAIR      15   5  64 VRB7      30.81R WCI   5

$$






USA.gov is the U.S. government's official web portal to all federal, state and local government web resources and services.